Address 0x8af6a178eb18db443e64fbdb0e534114dd532519 3

 
Txn Hash Method
Block
From
To
Value [Txn Fee]
0x199e9ab8a79dfa54d994e0f4585330a15cc4c01dcce1b51efa6f0684859a1a28Stake221068602021-12-04 0:32:001 hr 38 mins ago0x8af6a178eb18db443e64fbdb0e534114dd532519OUT 0x4d70a031fc76da6a9bc0c922101a05fa95c3a2270 MATIC0.00361938
0x5198198028cea35728e385a799f462b83d2f076729575f8aed27b2fa105c10e1Redeem221068462021-12-04 0:31:321 hr 39 mins ago0x8af6a178eb18db443e64fbdb0e534114dd532519OUT 0x7de627c56d26529145a5f9d85948ecbeaf9a4b340 MATIC0.00244317
0xf8e35d796488980818b7b1a133bab798246688b9b14b05711807ae1d7d413b83Stake220970922021-12-03 18:20:087 hrs 50 mins ago0x8af6a178eb18db443e64fbdb0e534114dd532519OUT 0x4d70a031fc76da6a9bc0c922101a05fa95c3a2270 MATIC0.00316938
0x6a65e2a48c2de8a151aedb8d0e49cd30c6aff16eb632ffe92d2ef92bc612d7b6Redeem220970272021-12-03 18:17:547 hrs 53 mins ago0x8af6a178eb18db443e64fbdb0e534114dd532519OUT 0x7de627c56d26529145a5f9d85948ecbeaf9a4b340 MATIC0.00244317
0xb3cec5225819de34ba14a3bd4af335d17369d2cc295ad71ac82db6ae896f5387Mint220893382021-12-03 13:36:4912 hrs 34 mins ago0x8af6a178eb18db443e64fbdb0e534114dd532519OUT 0x535e3f59afb1de1a5694d5840224f964d53f76880 MATIC0.0048696602
0xe109c5fed31518973b830d79178e2c3cb1b332e5be4c123f339554a98c8a43e5Stake220892932021-12-03 13:35:1912 hrs 35 mins ago0x8af6a178eb18db443e64fbdb0e534114dd532519OUT 0x4d70a031fc76da6a9bc0c922101a05fa95c3a2270 MATIC0.0052829
0x5711e483b8a4eb2393040a9bef278ef74c98869d9a31047b625d52e8843d80cdRedeem220892642021-12-03 13:33:4712 hrs 37 mins ago0x8af6a178eb18db443e64fbdb0e534114dd532519OUT 0x7de627c56d26529145a5f9d85948ecbeaf9a4b340 MATIC0.00257356
0xbb2da27add4a8c551c477fcd51db798c07018a222150873175186cef93e5056bMint220456402021-12-02 10:23:131 day 15 hrs ago0x8af6a178eb18db443e64fbdb0e534114dd532519OUT 0x535e3f59afb1de1a5694d5840224f964d53f76880 MATIC0.00108017305
0x3a8abccda30221733ccc7a89fb51207597ff6f8df0681c6a757e0551b9aa4bcbStake220454902021-12-02 10:17:351 day 15 hrs ago0x8af6a178eb18db443e64fbdb0e534114dd532519OUT 0x4d70a031fc76da6a9bc0c922101a05fa95c3a2270 MATIC0.0007299083
0x9b935f6fa4d92e1e933d08cd9b241c7cd1b84f13c60816fb187ba64e7311f897Redeem220454792021-12-02 10:16:511 day 15 hrs ago0x8af6a178eb18db443e64fbdb0e534114dd532519OUT 0x7de627c56d26529145a5f9d85948ecbeaf9a4b340 MATIC0.00064339
0xdeb9274f604415f66e426f11cdc8771d24dd5c30a27793f812298517e33fd1e4Mint220453812021-12-02 10:12:111 day 15 hrs ago0x8af6a178eb18db443e64fbdb0e534114dd532519OUT 0x85322b01612a7c79b0779c616af07fb71fe9433a0 MATIC0.00443364
0x778629d77747faeaf950acb9f0bcabb58cfbbee4e286c9c626d8e0c2505601edDeposit220453492021-12-02 10:11:031 day 15 hrs ago0x8af6a178eb18db443e64fbdb0e534114dd532519OUT Polygon: WMATIC Token1 MATIC0.012116029
0x39d48462ed973bcd7a32a8b169994027a01be48cb50639026042434411f90205Mint220452962021-12-02 10:09:131 day 16 hrs ago0x8af6a178eb18db443e64fbdb0e534114dd532519OUT 0x85322b01612a7c79b0779c616af07fb71fe9433a0 MATIC0.00443364
0xebbc0cf4275c9d5a458529d1cccf8d951a7278a243bb7dac68075e4a15124888Deposit220452722021-12-02 10:08:251 day 16 hrs ago0x8af6a178eb18db443e64fbdb0e534114dd532519OUT Polygon: WMATIC Token3 MATIC0.013692464
0x22667706389fcba67950c460895618a4f54472e57d9c7f697018dbef2d3c3c01Mint220435872021-12-02 8:49:171 day 17 hrs ago0x8af6a178eb18db443e64fbdb0e534114dd532519OUT 0x85322b01612a7c79b0779c616af07fb71fe9433a0 MATIC0.00494664
0x32dc7d2f44b8481cdc9ed14481eea4574ee1bd64a81be2ae431fd2d3b9aa344aApprove220434632021-12-02 8:44:531 day 17 hrs ago0x8af6a178eb18db443e64fbdb0e534114dd532519OUT Polygon: WMATIC Token0 MATIC0.00079491
0xcba419047fb55561cd28d7157c65cb2232b6701650a53eebd4d8ed33d6c7f921Approve220434632021-12-02 8:44:531 day 17 hrs ago0x8af6a178eb18db443e64fbdb0e534114dd532519OUT Polygon: WMATIC Token0 MATIC0.000308772035
0xd860f151d9fc51774ab77f820d90d6c4d3ae4cbaff52a0b2e7d14c61197087eeDeposit220432122021-12-02 8:36:151 day 17 hrs ago0x8af6a178eb18db443e64fbdb0e534114dd532519OUT Polygon: WMATIC Token5 MATIC0.013467259
0x5e7c8ace518354a53cb56bec11eda25eab8c500b12bcc67611a252ea1ffc651bEnter Markets220431612021-12-02 8:34:291 day 17 hrs ago0x8af6a178eb18db443e64fbdb0e534114dd532519OUT 0x5beb233453d3573490383884bd4b9cba0663218a0 MATIC0.0028657314
0xb6047e707fac14e3b7a27e714629afbb877761f81543de7cedcbb24866cb9a19Mint220431412021-12-02 8:33:491 day 17 hrs ago0x8af6a178eb18db443e64fbdb0e534114dd532519OUT 0x535e3f59afb1de1a5694d5840224f964d53f76880 MATIC0.0054053226
0x68f71ae683cc5d520fdc1822df0e065c14b955dbe04a92e0e82e11daa5e06123Stake220431222021-12-02 8:33:071 day 17 hrs ago0x8af6a178eb18db443e64fbdb0e534114dd532519OUT 0x4d70a031fc76da6a9bc0c922101a05fa95c3a2270 MATIC0.00441926298
0x8a227d1d053b873566c474388ef81633d5f0458f9c2baeecfbb9c5e39717fce4Redeem220431122021-12-02 8:32:471 day 17 hrs ago0x8af6a178eb18db443e64fbdb0e534114dd532519OUT 0x7de627c56d26529145a5f9d85948ecbeaf9a4b340 MATIC0.00298311057
0xf3314b8313e8c2a709eaea5b70c9b01510e357ce65d0e1630b20873a8a19940eStake220354332021-12-02 3:33:581 day 22 hrs ago0x8af6a178eb18db443e64fbdb0e534114dd532519OUT 0x4d70a031fc76da6a9bc0c922101a05fa95c3a2270 MATIC0.00316974
0x74eb1f8df6a2228408b6cbcfe9d8e8f7b65bd637340b60ce652680d594937bf2Redeem220354022021-12-02 3:32:561 day 22 hrs ago0x8af6a178eb18db443e64fbdb0e534114dd532519OUT 0x7de627c56d26529145a5f9d85948ecbeaf9a4b340 MATIC0.00244317
0xd2dd3150da4aff5f3152a1f88c945ca8073ae1e26dfba89749fb4b590ccb7d43Mint220353962021-12-02 3:32:441 day 22 hrs ago0x8af6a178eb18db443e64fbdb0e534114dd532519OUT 0x535e3f59afb1de1a5694d5840224f964d53f76880 MATIC0.00486966
[ Download CSV Export 
Parent Txn Hash Block From To Value
Loading

Contract Name:
0 MATIC

Compiler Version
0

Optimization Enabled:
0 MATIC

Other Settings:
-NA-
Block Transaction Gas Used Reward
Age Block Fee Address BC Fee Address Voting Power Jailed Incoming
Block Uncle Number Difficulty Gas Used Reward
Loading
Loading
Make sure to use the "Vote Down" button for any spammy posts, and the "Vote Up" for interesting conversations.